Regional Weather Roundup
Issued by NWS

Home | Current Version | Previous Version | Graphics & Text | Print | Product List | Glossary On
Versions: 1 2 3 4 5 6 7 8 9 10 11 12 13 14 15 16 17 18 19 20 21 22 23 24 25 26 27 28 29 30 31 32 33 34 35 36 37 38 39 40 41 42 43 44 45 46 47 48 49 50
791
ASUS44 KFWD 301715
RWRTX
NORTH TEXAS HOURLY WEATHER ROUNDUP
NATIONAL WEATHER SERVICE FORT WORTH TX
1200 PM CDT SAT JUL 30 2016

NOTE: "FAIR" INDICATES FEW OR NO CLOUDS BELOW 12,000 FEET WITH NO
SIGNIFICANT WEATHER AND/OR OBSTRUCTIONS TO VISIBILITY.

TXZ118-119-301800-
DALLAS/FORT WORTH METROPLEX

CITY           SKY/WX    TMP DP  RH WIND       PRES   REMARKS
DFW AIRPORT    MOSUNNY   93  69  45 SW5       30.00S HX  98
DALLAS LOVE    MOSUNNY   93  70  46 SW9       30.00S HX  99
FTW MEACHAM    SUNNY     94  69  44 W9        30.00S HX  99
DAL-EXECUTIVE  SUNNY     92  69  47 W7        30.01S HX  97
FTW-ALLIANCE   MOSUNNY   94  69  44 SW6       30.00S HX  99
FTW-NAS-JRB    MOSUNNY   95  67  39 SW9       30.00F HX  99
FTW-SPINKS     MOSUNNY   93  66  40 SW6       30.03S HX  96
ARLINGTON      SUNNY     92  69  47 VRB6      30.01S HX  97
GRAND PRAIRIE  SUNNY     91  66  43 SW8       30.02S HX  94
ADDISON        SUNNY     91  72  52 W12       30.02R HX  98
MESQUITE         N/A     91  66  43 S8        30.01S HX  94
LANCASTER      SUNNY     94  68  42 SW8       30.02S HX  98
$$

TXZ091>094-102>105-117-120-121-131>134-301800-
NORTH CENTRAL TEXAS

CITY           SKY/WX    TMP DP  RH WIND       PRES   REMARKS
SHRMAN/DENISON SUNNY     94  70  45 SW12G17   30.01S HX 100
GAINESVILLE    SUNNY     91  70  49 S8        30.01F HX  96
BOWIE          SUNNY     93  69  45 SW8       30.01S HX  98
BRIDGEPORT     SUNNY     91  71  50 W5        30.02F HX  98
DECATUR        SUNNY     90  69  50 SW6       30.02F HX  94
DENTON         SUNNY     91  71  51 W9        30.00S HX  97
MCKINNEY       SUNNY     92  71  50 W7        30.01S HX  98
GREENVILLE     SUNNY     91  68  46 SW9       30.02S HX  95
ROCKWALL       SUNNY     91  73  55 SW10G22   30.00S HX  99
TERRELL        SUNNY     92  67  43 SW12      30.02S HX  95
WAXAHACHIE     SUNNY     91  70  50 S10       30.03S HX  96
CLEBURNE       SUNNY     91  68  46 S9        30.03F HX  95
GRANBURY       MOSUNNY   95  67  40 CALM      30.02S HX  99
$$

TXZ083>090-098>101-113>116-127>130-139>142-154-155-301800-
WESTERN NORTH TEXAS

CITY           SKY/WX    TMP DP  RH WIND       PRES   REMARKS
WICHITA FALLS  SUNNY     92  66  42 S9        29.98S HX  94
WF-KICKAPOO    SUNNY     93  63  36 W7        30.00S HX  94
VERNON         SUNNY     92  60  34 S8        30.00S HX  92
ABILENE        SUNNY     89  68  49 S8        30.06R HX  93
ABILENE-DYESS  MOSUNNY   90  69  49 VRB5      30.04R HX  95
CISCO          SUNNY     88  68  51 SW9G15    30.06  HAZE    HX  91
BRECKENRIDGE   SUNNY     92  64  39 CALM      30.02S HX  93
GRAHAM         SUNNY     94  68  42 S5        30.00F HX  98
MINERAL WELLS  SUNNY     91  71  51 S7        30.00F HX  97
STEPHENVILLE   SUNNY     90  68  49 S9        30.07F HX  94
COMANCHE       SUNNY     90  67  45 SW10G17   30.05S HX  93
BROWNWOOD      SUNNY     91  64  40 S14       30.05S HX  93
COLEMAN        SUNNY     89  66  47 SW6       30.06S HX  91
$$

TXZ143>147-156>162-174-175-301800-
CENTRAL TEXAS

CITY           SKY/WX    TMP DP  RH WIND       PRES   REMARKS
WACO           SUNNY     93  67  42 W10       30.02S HX  96
WACO-MCGREGOR  SUNNY     93  70  46 SW8       30.02F HX  99
HILLSBORO      SUNNY     90  67  46 S8        30.02F HX  93
CORSICANA      SUNNY     92  69  47 S9        30.03F HX  97
MEXIA          SUNNY     91  70  50 SW12G18   30.03S HX  96
HEARNE         SUNNY     91  71  52 S8        30.04S HX  96
CAMERON        SUNNY     92  71  50 S13       30.03F HX  98
TEMPLE         SUNNY     91  72  53 SW12      30.03S HX  98
KILLEEN        SUNNY     90  67  45 VRB6      30.03S HX  93
KILLEEN-SKYLRK MOSUNNY   91  71  51 S8        30.03F HX  97
FORT HOOD      SUNNY     90  70  51 S9        30.01F HX  95
GATESVILLE     SUNNY     90  68  48 SW6       30.05F HX  93
HAMILTON       SUNNY     91  68  46 S9        30.06F HX  95
LAMPASAS       SUNNY     91  71  51 SW8       30.04S HX  96
$$

TXZ095>097-106>112-122>126-135>138-148>153-164>167-301800-
EAST TEXAS

CITY           SKY/WX    TMP DP  RH WIND       PRES   REMARKS
PARIS          SUNNY     93  70  46 W13G20    30.01S HX  99
SULPHUR SPRNGS SUNNY     93  69  46 W13G18    30.04R HX  98
MOUNT PLEASANT SUNNY     92  67  43 SW10      30.03S HX  95
GILMER         SUNNY     89  70  52 SW6       30.03S HX  94
MINEOLA        SUNNY     91  72  52 S7        30.03S HX  98
TYLER          SUNNY     91  70  49 SW8       30.04R HX  96
LONGVIEW       SUNNY     91  72  53 W9        30.02S HX  98
MARSHALL       SUNNY     86  71  59 SW7       30.05S HX  91
ATHENS         SUNNY     88  70  55 SW9       30.02S HX  92
PALESTINE      SUNNY     90  73  56 SW7       30.05S HX  98
JACKSONVILLE   SUNNY     90  72  55 W7        30.07F HX  96
HENDERSON      SUNNY     89  72  56 W6        30.05S HX  95
CENTER         SUNNY     91  75  59 W3        30.05S HX 101
NACOGDOCHES    SUNNY    N/A N/A N/A W8        30.02F
LUFKIN         MOSUNNY   90  73  57 SW8       30.04S HX  98
$$

SUPPLEMENTAL OBSERVATIONS (CENTRAL)

CITY           SKY/WX    TMP DP  RH WIND       PRES   REMARKS
DENISON DAM      N/A     90  68  48 W15         N/A  HX  93
CADDO GRASSLND   N/A     95  70  43 SW8G16      N/A  HX 101
PAT MAYSE LAKE   N/A     90  73  58 S8          N/A  HX  98
ATHENS           N/A     93  72  49 W3G14       N/A  HX 100
MCGREGOR         N/A     91  72  52 S6          N/A  HX  98
$$

SUPPLEMENTAL OBSERVATIONS (WEST)

CITY           SKY/WX    TMP DP  RH WIND       PRES   REMARKS
MILLERS CREEK    N/A     93  64  38 SW10        N/A  HX  95
LBJ GRASSLAND    N/A     91  72  52 S5          N/A  HX  98
HAMBY            N/A     90  68  48 SW8         N/A  HX  93
IVIE RESERVOIR   N/A     91  66  43 SE8G17      N/A  HX  94
COLORADO BEND    N/A     91  66  43 W6G15       N/A  HX  94
$$

SUPPLEMENTAL OBSERVATIONS (EAST)

CITY           SKY/WX    TMP DP  RH WIND       PRES   REMARKS
CLARKSVILLE      N/A     95  77  55 W1G9        N/A  HX 109
TEXARKANA        N/A     91  73  55 SW6         N/A  HX 100
LINDEN           N/A     91  70  49 SW6         N/A  HX  97
GILMER           N/A     91  70  49 SW10        N/A  HX  97
HENDERSON        N/A     91  72  52 SW9         N/A  HX  98
S SABINE NF      N/A     91  72  52 S3          N/A  HX  98
$$

SUPPLEMENTAL OBSERVATIONS ARE A COLLECTION OF AUTOMATED INSTRUMENTS
THAT ARE MAINTAINED BY A VARIETY OF FEDERAL AND STATE AGENCIES.
CERTAIN ELEMENTS...SUCH AS HUMIDITY VALUES AND SUSTAINED WIND
SPEEDS...MAY BE APPROXIMATED.





USA.gov is the U.S. government's official web portal to all federal, state and local government web resources and services.